Location: Calvatone
(45.1167°N, 10.4333°E)
Time: 10:47:50
(UTC+00:00)

METEOR M2 - Pass Details

Date: 12 December 2023
Orbit: 818 x 826 km, 98.4° (Epoch: 24 February)

Event Time Altitude Azimuth Distance (km) Brightness Sun altitude
Rises 04:17:30 0° 24° (NNE) 3,367 ? -25.4°
Reaches altitude 10° 04:20:13 10° 36° (NE) 2,428 ? -25.0°
Maximum altitude 04:24:47 28° 94° (E) 1,506 ? -24.2°
Drops below altitude 10° 04:29:18 10° 152° (SSE) 2,409 ? -23.4°
Sets 04:31:58 0° 164° (SSE) 3,335 ? -22.9°
